FW2134 Weather Reports


time (UTC)temp
C
wind
direction
speed
KPH
gust
KPH
rain 1hr
cm
rain 24hr
cm
rain mn
cm
humidity
%
barometer
mb
20260510213051 16 10 0.0 0.0 0.00 0.00 0.03 84 1012.0
20260510211549 16 10 1.6 0.0 0.00 0.00 0.03 84 1011.8
20260510210049 16 10 4.8 0.0 0.00 0.00 0.03 83 1011.8
20260510204547 16 31 3.2 0.0 0.00 0.00 0.03 82 1011.5
20260510203047 17 27 6.4 0.0 0.00 0.00 0.03 81 1011.4
20260510201547 18 31 4.8 0.0 0.00 0.00 0.03 78 1011.4
20260510200112 19 24 1.6 0.0 0.00 0.00 0.03 75 1011.6
20260510194554 20 47 4.8 0.0 0.00 0.00 0.03 73 1011.6
20260510193056 20 14 3.2 0.0 0.00 0.00 0.03 72 1011.7
20260510191554 20 58 4.8 0.0 0.00 0.00 0.03 73 1011.8
20260510190044 20 20 4.8 0.0 0.00 0.00 0.03 70 1011.5
20260510184544 22 51 3.2 0.0 0.00 0.00 0.03 66 1011.7
20260510183053 22 56 3.2 0.0 0.00 0.00 0.03 67 1011.8
20260510181544 22 71 3.2 0.0 0.00 0.00 0.03 68 1011.9
20260510180043 22 38 3.2 0.0 0.00 0.00 0.03 68 1011.8
20260510174544 21 102 3.2 0.0 0.00 0.00 0.03 68 1011.7
20260510173046 21 117 3.2 0.0 0.00 0.00 0.03 68 1011.8
20260510171542 20 222 0.0 0.0 0.00 0.00 0.03 73 1011.9
20260510170032 18 164 4.8 0.0 0.00 0.00 0.03 74 1012.0
20260510164527 17 124 0.0 0.0 0.00 0.00 0.03 83 1012.3
20260510163025 16 124 1.6 0.0 0.00 0.00 0.03 87 1012.4
20260510161521 16 34 3.2 0.0 0.00 0.00 0.03 92 1012.5
20260510160024 15 126 1.6 0.0 0.00 0.00 0.03 95 1012.5
20260510154513 14 133 1.6 0.0 0.00 0.00 0.03 96 1012.7
20260510153010 14 134 1.6 0.0 0.00 0.00 0.03 97 1012.6
20260510151511 13 128 0.0 0.0 0.00 0.00 0.03 97 1012.7
20260510150010 13 106 1.6 0.0 0.00 0.00 0.03 98 1012.7
20260510144524 13 61 0.0 0.0 0.00 0.00 0.03 98 1012.6
20260510143008 12 61 1.6 0.0 0.00 0.00 0.03 98 1012.5
20260510141505 12 52 0.0 0.0 0.00 0.00 0.03 98 1012.5
20260510140005 12 52 1.6 0.0 0.00 0.00 0.03 97 1012.5
20260510134507 12 52 0.0 0.0 0.00 0.00 0.03 98 1012.4
20260510133003 12 24 0.0 0.0 0.00 0.00 0.03 98 1012.5
20260510131503 12 24 0.0 0.0 0.00 0.00 0.03 97 1012.0
20260510130001 12 24 0.0 0.0 0.00 0.00 0.03 97 1011.9
20260510124601 12 343 0.0 0.0 0.00 0.00 0.03 97 1011.8
20260510124506 12 343 0.0 0.0 0.00 0.00 0.03 97 1011.8
20260510123119 11 343 0.0 0.0 0.00 0.00 0.03 97 1011.8
20260510121600 11 343 0.0 0.0 0.00 0.00 0.03 97 1011.6
20260510121502 12 343 0.0 0.0 0.00 0.00 0.03 97 1011.6
20260510120059 11 343 0.0 0.0 0.00 0.00 0.03 98 1011.5
20260510114602 11 343 0.0 0.0 0.00 0.00 0.03 97 1011.4
20260510113100 11 343 0.0 0.0 0.00 0.00 0.03 97 1011.3
20260510111602 11 343 0.0 0.0 0.00 0.00 0.03 97 1010.9
20260510111502 11 343 0.0 0.0 0.00 0.00 0.03 97 1010.9
20260510110058 11 326 0.0 0.0 0.00 0.00 0.03 97 1010.7
20260510104557 11 326 0.0 0.0 0.00 0.00 0.03 97 1010.9
20260510103058 11 326 0.0 0.0 0.00 0.00 0.03 97 1010.8
20260510101554 11 326 0.0 0.0 0.00 0.00 0.03 97 1010.8
20260510100052 11 326 0.0 0.0 0.00 0.00 0.03 97 1010.8
20260510094552 11 326 1.6 0.0 0.00 0.00 0.03 97 1010.9
20260510093049 11 357 1.6 0.0 0.00 0.00 0.03 97 1011.0
20260510091549 11 107 1.6 0.0 0.00 0.00 0.03 97 1011.1
20260510090042 11 305 1.6 0.0 0.00 0.00 0.03 97 1010.9
20260510084538 11 309 1.6 0.0 0.00 0.00 0.03 97 1010.5
20260510083033 11 240 0.0 0.0 0.00 0.00 0.00 96 1010.5
20260510081538 10 239 0.0 0.0 0.00 0.00 0.00 96 1010.4
20260510080028 10 209 0.0 0.0 0.00 0.00 0.00 96 1010.3
20260510074525 10 207 0.0 0.0 0.00 0.00 0.00 96 1010.2
20260510073030 10 207 1.6 0.0 0.00 0.00 0.00 96 1010.3
20260510071519 9 207 0.0 0.0 0.00 0.00 0.00 96 1010.3
20260510070017 8 167 0.0 0.0 0.00 0.00 0.00 96 1010.0
20260510064519 8 167 0.0 0.0 0.00 0.00 0.00 95 1009.9
20260510063015 8 167 0.0 0.0 0.00 0.00 0.00 95 1009.9
20260510061515 8 167 0.0 0.0 0.00 0.00 0.00 95 1009.9
20260510060019 8 167 0.0 0.0 0.00 0.00 0.00 95 1010.0
20260510054514 8 167 0.0 0.0 0.00 0.00 0.00 94 1010.1
20260510053014 8 167 0.0 0.0 0.00 0.00 0.00 94 1010.1
20260510051512 8 167 0.0 0.0 0.00 0.00 0.00 94 1010.2
20260510050011 8 167 0.0 0.0 0.00 0.00 0.00 94 1010.3
20260510044509 8 167 0.0 0.0 0.00 0.00 0.00 94 1010.4
20260510043008 9 167 0.0 0.0 0.00 0.00 0.00 94 1010.3
20260510041507 9 167 0.0 0.0 0.00 0.00 0.00 94 1010.2
20260510040004 9 167 0.0 0.0 0.00 0.00 0.30 93 1010.0
20260510034503 10 167 0.0 0.0 0.00 0.00 0.30 93 1010.0
20260510033001 10 167 0.0 0.0 0.00 0.00 0.30 93 1010.0
20260510031505 10 167 0.0 0.0 0.00 0.00 0.30 93 1009.9
20260510024559 10 165 0.0 0.0 0.00 0.00 0.30 93 1010.0
20260510023059 10 167 0.0 0.0 0.00 0.00 0.30 93 1009.9
20260510021502 10 167 0.0 0.0 0.00 0.00 0.30 92 1009.9
20260510020013 10 167 0.0 0.0 0.00 0.00 0.30 92 1009.9
20260510014618 11 167 0.0 0.0 0.00 0.00 0.30 92 1009.9
20260510013103 11 167 0.0 0.0 0.00 0.00 0.30 92 1009.8
20260510011558 11 167 0.0 0.0 0.00 0.00 0.30 92 1009.6
20260510010057 11 167 0.0 0.0 0.00 0.00 0.30 92 1009.4
20260510004557 11 178 0.0 0.0 0.00 0.00 0.30 91 1009.4
20260510003103 11 178 0.0 0.0 0.00 0.00 0.30 91 1009.4
20260510001557 12 178 0.0 0.0 0.00 0.00 0.30 90 1009.3
20260510000058 12 178 0.0 0.0 0.00 0.00 0.30 90 1009.3
20260509234556 12 178 0.0 0.0 0.00 0.00 0.30 91 1009.1
20260509233056 12 178 0.0 0.0 0.00 0.00 0.30 90 1009.1
20260509231557 13 178 0.0 0.0 0.00 0.00 0.30 90 1009.2
20260509230057 13 178 0.0 0.0 0.00 0.00 0.30 90 1009.4
20260509224600 13 178 0.0 0.0 0.00 0.00 0.30 88 1009.5
20260509223059 13 185 0.0 0.0 0.00 0.00 0.30 88 1009.7
20260509221604 13 188 0.0 0.0 0.00 0.00 0.28 85 1010.1
20260509220054 13 188 0.0 0.0 0.00 0.00 0.20 83 1009.8
20260509214558 13 188 1.6 0.0 0.00 0.00 0.18 81 1009.9